Regional Weather Roundup
Issued by NWS Sioux Falls, SD

Home | Current Version | Previous Version | Graphics & Text | Print | Product List | Glossary On
Versions: 1 2 3 4 5 6 7 8 9 10 11 12 13 14 15 16 17 18 19 20 21 22 23 24 25 26 27 28 29 30 31 32 33 34 35 36 37 38 39 40 41 42 43 44 45 46 47 48 49 50
899
ASUS43 KFSD 110502
RWRFSD

WEATHER ROUNDUP FOR SE SOUTH DAKOTA/SW MINNESOTA/NW IOWA
NATIONAL WEATHER SERVICE SIOUX FALLS SD
1100 PM CST WED FEB 10 2016

NOTE: "FAIR" INDICATES FEW OR NO CLOUDS BELOW 12,000 FEET WITH NO
SIGNIFICANT WEATHER AND OR OBSTRUCTIONS TO VISIBILITY.


SDZ038>040-050-052>070-110600-
SOUTHEAST SOUTH DAKOTA

CITY           SKY/WX    TMP DP  RH WIND       PRES   REMARKS
BROOKINGS      FLURRIES  11   5  77 E9        30.19R WCI  -2
CHAMBERLAIN    CLOUDY    22  20  90 CALM      30.18R
HURON          CLOUDY    16  11  80 E8        30.21S WCI   5
MADISON        CLOUDY    10   9  92 E8        30.19S WCI  -1
MITCHELL       CLOUDY    19  13  77 NE9       30.21S WCI   8
SIOUX FALLS    CLOUDY    13   7  77 NE12      30.21R WCI  -1
WINNER         CLOUDY    28  22  78 N5        30.17R WCI  23
YANKTON        CLOUDY    18  12  79 NE8       30.22R WCI   7
$$

MNZ071-072-080-081-089-090-097-098-110600-
SOUTHWEST MINNESOTA

CITY           SKY/WX    TMP DP  RH WIND       PRES   REMARKS
FAIRMONT       CLOUDY    10   1  67 N6        30.22R WCI   1
JACKSON        CLOUDY    10   3  72 N3        30.22R
LUVERNE        CLOUDY    14   9  79 NE7       30.22R WCI   4
MARSHALL       CLOUDY    13   6  74 N7        30.25S WCI   3
MONTEVIDEO     CLOUDY     7   1  78 CALM      30.28S
PIPESTONE      CLOUDY    12   1  62 E5        30.19R WCI   4
REDWOOD FALLS  CLOUDY    12   3  67 CALM      30.25S
TRACY          CLOUDY    14   8  78 N5        30.23S WCI   6
WINDOM         CLOUDY    10   5  79 CALM      30.22R
WORTHINGTON    CLOUDY    10   3  72 NE9       30.22R WCI  -2
$$

IAZ001>003-012>014-020>022-031-032-NEZ013-014-SDZ071-110600-
NORTHWEST IOWA

CITY           SKY/WX    TMP DP  RH WIND       PRES   REMARKS
DENISON        CLOUDY    14  10  85 NE9       30.17R WCI   2
ESTHERVILLE    CLOUDY     9   3  77 N8        30.22R WCI  -3
LE MARS        CLOUDY    16  12  86 NE8       30.22R WCI   5
ORANGE CITY    CLOUDY    12  10  92 NE9       30.20R WCI   0
SIOUX CITY     CLOUDY    19  12  74 E7        30.21R WCI  10
SPENCER        CLOUDY    12   3  67 NE14      30.21R WCI  -3
STORM LAKE     CLOUDY    12   9  85 NE14      30.19R WCI  -3
$$

ABBREVIATIONS USED IN REMARKS
   TC - TEMPERATURE IN CELSIUS
  WCI - WIND CHILL INDEX
   HX - HEAT INDEX
  VSB - VISIBILITY





USA.gov is the U.S. government's official web portal to all federal, state and local government web resources and services.